Simultaneous Nadir Overpasses (SNOs) Predictions

Prediction of SNOs between METOP-A and NOAA-19 Satellite Orbit:

Table of predicted SNOs for the next 14.0 days since TLE Epoch: 4/6/2017
Index Date (METOP-A) Time (METOP-A) Lat,Lon (METOP-A) SZA (METOP-A ) Date (NOAA-19) Time (NOAA-19) Lat,Lon (NOAA-19) SZA (NOAA-19 ) Distance(km) Time Diff (sec)
1 04/16/2017 01:01:02 -77.11, -11.34 113.06 04/16/2017 00:59:53 -77.10, -11.35 113.07 0.85 69
2 04/16/2017 01:51:42 77.09, 155.91 66.91 04/16/2017 01:50:55 77.11, 155.88 66.92 1.95 47
3 04/16/2017 02:42:24 -77.09, -36.76 113.11 04/16/2017 02:41:54 -77.08, -36.73 113.12 1.94 30
4 04/16/2017 03:33:04 77.07, 130.49 66.86 04/16/2017 03:32:56 77.08, 130.50 66.87 0.88 8
5 04/16/2017 04:23:46 -77.07, -62.17 113.15 04/16/2017 04:23:55 -77.05, -62.11 113.18 3.26 9
6 04/16/2017 05:14:26 77.05, 105.08 66.82 04/16/2017 05:14:57 77.05, 105.12 66.82 1.02 31
7 04/16/2017 06:05:08 -77.06, -87.59 113.20 04/16/2017 06:05:57 -77.06, -87.68 113.19 2.26 49
8 04/16/2017 06:55:48 77.03, 79.66 66.77 04/16/2017 06:56:58 77.03, 79.73 66.77 2.13 70




NCC Satellite Simultaneous Nadir Overpasses (SNOs) Prediction Service
